| time (UTC) | temp F | wind direction | speed MPH | gust MPH | rain 1hr in | rain 24hr in | rain mn in | humidity % | barometer mb |
| 20260504081802 | 56 | 244 | 2.0 | 8.0 | 0.00 | 0.00 | 0.00 | 84 | 1013.2 |
| 20260504080902 | 56 | 227 | 0.0 | 2.0 | 0.00 | 0.00 | 0.00 | 83 | 1013.1 |
| 20260504050002 | 56 | 235 | 1.0 | 4.0 | 0.00 | 0.00 | 0.00 | 78 | 1013.0 |
| 20260504045402 | 56 | 238 | 1.0 | 4.0 | 0.00 | 0.00 | 0.00 | 78 | 1012.6 |
| 20260504044523 | 56 | 247 | 1.0 | 3.0 | 0.00 | 0.00 | 0.00 | 78 | 1012.7 |
| 20260504043623 | 56 | 246 | 1.0 | 3.0 | 0.00 | 0.00 | 0.00 | 78 | 1012.5 |
| 20260504042702 | 56 | 242 | 0.0 | 3.0 | 0.00 | 0.00 | 0.00 | 77 | 1012.3 |
| 20260504041803 | 56 | 249 | 0.0 | 3.0 | 0.00 | 0.00 | 0.00 | 77 | 1012.5 |
| 20260504040904 | 56 | 267 | 0.0 | 2.0 | 0.00 | 0.00 | 0.00 | 76 | 1012.3 |
| 20260504040004 | 56 | 255 | 0.0 | 3.0 | 0.00 | 0.00 | 0.00 | 77 | 1012.3 |
| 20260504035403 | 56 | 257 | 0.0 | 3.0 | 0.00 | 0.00 | 0.00 | 77 | 1012.4 |
| 20260504034502 | 57 | 239 | 1.0 | 3.0 | 0.00 | 0.00 | 0.00 | 77 | 1012.5 |
| 20260504033602 | 57 | 248 | 1.0 | 4.0 | 0.00 | 0.00 | 0.00 | 77 | 1012.5 |
| 20260504032702 | 57 | 250 | 1.0 | 4.0 | 0.00 | 0.00 | 0.00 | 76 | 1012.5 |
| 20260504031803 | 57 | 252 | 1.0 | 5.0 | 0.00 | 0.00 | 0.00 | 75 | 1012.2 |
| 20260504030923 | 57 | 248 | 2.0 | 7.0 | 0.00 | 0.00 | 0.00 | 74 | 1012.3 |
| 20260504030002 | 57 | 240 | 2.0 | 5.0 | 0.00 | 0.00 | 0.00 | 73 | 1012.0 |
| 20260504025402 | 57 | 242 | 1.0 | 3.0 | 0.00 | 0.00 | 0.00 | 73 | 1011.9 |
| 20260504024502 | 57 | 244 | 1.0 | 4.0 | 0.00 | 0.00 | 0.00 | 73 | 1011.8 |
| 20260504023602 | 57 | 245 | 1.0 | 4.0 | 0.00 | 0.00 | 0.00 | 72 | 1011.9 |
| 20260504022702 | 58 | 251 | 1.0 | 4.0 | 0.00 | 0.00 | 0.00 | 72 | 1011.9 |
| 20260504021823 | 58 | 245 | 3.0 | 7.0 | 0.00 | 0.00 | 0.00 | 72 | 1012.0 |
| 20260504020902 | 58 | 248 | 3.0 | 7.0 | 0.00 | 0.00 | 0.00 | 72 | 1011.7 |
| 20260504020023 | 58 | 238 | 3.0 | 7.0 | 0.00 | 0.00 | 0.00 | 71 | 1011.7 |
| 20260504015402 | 58 | 236 | 4.0 | 7.0 | 0.00 | 0.00 | 0.00 | 72 | 1011.5 |
| 20260504014502 | 59 | 246 | 4.0 | 8.0 | 0.00 | 0.00 | 0.00 | 71 | 1011.5 |
| 20260504013602 | 59 | 241 | 4.0 | 9.0 | 0.00 | 0.00 | 0.00 | 70 | 1011.6 |
| 20260504012723 | 59 | 245 | 5.0 | 10.0 | 0.00 | 0.00 | 0.00 | 70 | 1011.3 |
| 20260504011803 | 60 | 239 | 5.0 | 11.0 | 0.00 | 0.00 | 0.00 | 69 | 1011.1 |
| 20260504010902 | 61 | 238 | 5.0 | 9.0 | 0.00 | 0.00 | 0.00 | 68 | 1011.1 |
| 20260504010004 | 61 | 243 | 7.0 | 14.0 | 0.00 | 0.00 | 0.00 | 68 | 1010.7 |
| 20260504005402 | 62 | 238 | 7.0 | 12.0 | 0.00 | 0.00 | 0.00 | 67 | 1010.6 |
| 20260504004502 | 63 | 237 | 6.0 | 11.0 | 0.00 | 0.00 | 0.00 | 66 | 1010.6 |
| 20260504003603 | 64 | 240 | 5.0 | 11.0 | 0.00 | 0.00 | 0.00 | 64 | 1010.2 |
| 20260504002703 | 64 | 234 | 4.0 | 8.0 | 0.00 | 0.00 | 0.00 | 63 | 1010.2 |
| 20260504001802 | 64 | 237 | 3.0 | 8.0 | 0.00 | 0.00 | 0.00 | 65 | 1010.0 |
| 20260504000923 | 64 | 232 | 1.0 | 5.0 | 0.00 | 0.00 | 0.00 | 65 | 1010.0 |
| 20260504000023 | 64 | 237 | 4.0 | 6.0 | 0.00 | 0.00 | 0.00 | 65 | 1010.1 |
| 20260503235423 | 64 | 237 | 3.0 | 7.0 | 0.00 | 0.00 | 0.00 | 65 | 1010.2 |
| 20260503234502 | 64 | 234 | 1.0 | 4.0 | 0.00 | 0.00 | 0.00 | 67 | 1009.9 |
| 20260503233602 | 64 | 231 | 2.0 | 6.0 | 0.00 | 0.00 | 0.00 | 68 | 1010.0 |
| 20260503232702 | 64 | 230 | 2.0 | 6.0 | 0.00 | 0.00 | 0.00 | 68 | 1010.1 |
| 20260503231802 | 64 | 233 | 2.0 | 5.0 | 0.00 | 0.00 | 0.00 | 69 | 1010.2 |
| 20260503230902 | 64 | 228 | 2.0 | 5.0 | 0.00 | 0.00 | 0.00 | 68 | 1010.3 |
| 20260503230002 | 64 | 233 | 3.0 | 5.0 | 0.00 | 0.00 | 0.00 | 69 | 1010.4 |
| 20260503225402 | 64 | 236 | 4.0 | 7.0 | 0.00 | 0.00 | 0.00 | 69 | 1010.5 |
| 20260503224502 | 63 | 234 | 4.0 | 8.0 | 0.00 | 0.00 | 0.00 | 69 | 1010.5 |
| 20260503223603 | 63 | 249 | 3.0 | 7.0 | 0.00 | 0.00 | 0.00 | 70 | 1010.4 |
| 20260503222702 | 63 | 243 | 4.0 | 7.0 | 0.00 | 0.00 | 0.00 | 70 | 1010.6 |
| 20260503221802 | 63 | 252 | 3.0 | 7.0 | 0.00 | 0.00 | 0.00 | 71 | 1010.6 |
| 20260503220902 | 63 | 241 | 4.0 | 10.0 | 0.00 | 0.00 | 0.00 | 71 | 1010.6 |
| 20260503220002 | 63 | 245 | 4.0 | 8.0 | 0.00 | 0.00 | 0.00 | 70 | 1010.8 |
| 20260503215404 | 63 | 239 | 4.0 | 10.0 | 0.00 | 0.00 | 0.00 | 71 | 1010.8 |
| 20260503214524 | 63 | 247 | 3.0 | 7.0 | 0.00 | 0.00 | 0.00 | 71 | 1010.7 |
| 20260503213603 | 63 | 248 | 4.0 | 8.0 | 0.00 | 0.00 | 0.00 | 71 | 1010.7 |
| 20260503212702 | 64 | 240 | 3.0 | 7.0 | 0.00 | 0.00 | 0.00 | 71 | 1010.7 |
| 20260503211802 | 64 | 242 | 4.0 | 10.0 | 0.00 | 0.00 | 0.00 | 71 | 1010.8 |
| 20260503210902 | 64 | 244 | 4.0 | 8.0 | 0.00 | 0.00 | 0.00 | 72 | 1010.8 |
| 20260503210002 | 64 | 237 | 6.0 | 11.0 | 0.00 | 0.00 | 0.00 | 71 | 1010.9 |
| 20260503205403 | 64 | 241 | 5.0 | 9.0 | 0.00 | 0.00 | 0.00 | 70 | 1010.8 |
| 20260503204502 | 64 | 248 | 3.0 | 8.0 | 0.00 | 0.00 | 0.00 | 73 | 1010.8 |
| 20260503203602 | 63 | 253 | 3.0 | 6.0 | 0.00 | 0.00 | 0.00 | 75 | 1011.0 |
| 20260503202702 | 62 | 252 | 3.0 | 9.0 | 0.00 | 0.00 | 0.00 | 75 | 1011.1 |
| 20260503201802 | 62 | 254 | 4.0 | 9.0 | 0.00 | 0.00 | 0.00 | 76 | 1011.1 |
| 20260503200902 | 62 | 241 | 5.0 | 10.0 | 0.00 | 0.00 | 0.00 | 78 | 1011.1 |
| 20260503200002 | 62 | 234 | 5.0 | 10.0 | 0.00 | 0.00 | 0.00 | 77 | 1011.3 |
| 20260503195402 | 63 | 241 | 4.0 | 8.0 | 0.00 | 0.00 | 0.00 | 76 | 1011.3 |
| 20260503194502 | 63 | 246 | 1.0 | 5.0 | 0.00 | 0.00 | 0.00 | 77 | 1011.2 |
| 20260503193602 | 63 | 237 | 1.0 | 5.0 | 0.00 | 0.00 | 0.00 | 76 | 1011.3 |
| 20260503192702 | 63 | 242 | 2.0 | 6.0 | 0.00 | 0.00 | 0.00 | 77 | 1011.3 |
| 20260503191803 | 63 | 241 | 4.0 | 9.0 | 0.00 | 0.00 | 0.00 | 76 | 1011.3 |
| 20260503190902 | 64 | 235 | 2.0 | 6.0 | 0.00 | 0.00 | 0.00 | 72 | 1011.3 |
| 20260503190002 | 64 | 211 | 2.0 | 6.0 | 0.00 | 0.00 | 0.00 | 73 | 1011.2 |
| 20260503185402 | 64 | 230 | 3.0 | 7.0 | 0.00 | 0.00 | 0.00 | 75 | 1011.3 |
| 20260503184502 | 64 | 205 | 1.0 | 5.0 | 0.00 | 0.00 | 0.00 | 76 | 1011.4 |
| 20260503183602 | 62 | 230 | 1.0 | 6.0 | 0.00 | 0.00 | 0.00 | 81 | 1011.5 |
| 20260503182704 | 62 | 251 | 0.0 | 3.0 | 0.00 | 0.00 | 0.00 | 82 | 1011.5 |
| 20260503181802 | 61 | 153 | 0.0 | 3.0 | 0.00 | 0.00 | 0.00 | 84 | 1011.5 |
| 20260503180904 | 60 | 228 | 0.0 | 2.0 | 0.00 | 0.00 | 0.00 | 86 | 1011.6 |
| 20260503180002 | 60 | 241 | 1.0 | 4.0 | 0.00 | 0.00 | 0.00 | 87 | 1011.6 |
| 20260503175402 | 60 | 222 | 0.0 | 3.0 | 0.00 | 0.00 | 0.00 | 89 | 1011.7 |
| 20260503174502 | 59 | 167 | 0.0 | 2.0 | 0.00 | 0.00 | 0.00 | 91 | 1011.7 |
| 20260503173602 | 58 | 0 | 0.0 | 0.0 | 0.00 | 0.00 | 0.00 | 92 | 1011.8 |
| 20260503172702 | 58 | 141 | 0.0 | 2.0 | 0.00 | 0.00 | 0.00 | 93 | 1011.8 |
| 20260503171802 | 58 | 0 | 0.0 | 0.0 | 0.00 | 0.00 | 0.00 | 94 | 1011.9 |
| 20260503170902 | 57 | 0 | 0.0 | 0.0 | 0.00 | 0.00 | 0.00 | 94 | 1011.9 |
| 20260503150902 | 55 | 238 | 1.0 | 3.0 | 0.00 | 0.00 | 0.00 | 95 | 1012.1 |
| 20260503130902 | 55 | 0 | 0.0 | 0.0 | 0.00 | 0.00 | 0.00 | 93 | 1011.8 |